This is the latest recevied weather packets stored in our database for station/object ES2ADF-5. If no packets are shown the sender has not sent any weather packets the latest 10 day(s).
| Time | Temp. | Humidity | Pressure | Rain* | Wind** | Luminosity | Snow |
|---|---|---|---|---|---|---|---|
| 1787637025 | 23.89° C | 61% | 1018.6 hPa | 0 mm | - | - | - |
| 1787636725 | 23.89° C | 62% | 1018.7 hPa | 0 mm | - | - | - |
| 1787636425 | 23.33° C | 63% | 1018.6 hPa | 0 mm | - | - | - |
| 1787636125 | 22.78° C | 65% | 1018.6 hPa | 0 mm | - | - | - |
| 1787635824 | 22.78° C | 66% | 1018.8 hPa | 0 mm | - | - | - |
| 1787635524 | 22.22° C | 68% | 1018.7 hPa | 0 mm | - | - | - |
| 1787635224 | 21.67° C | 69% | 1018.7 hPa | 0 mm | - | - | - |
| 1787634923 | 21.11° C | 72% | 1018.6 hPa | 0 mm | - | - | - |
| 1787634623 | 20.56° C | 77% | 1018.6 hPa | 0 mm | - | - | - |
| 1787634323 | 19.44° C | 82% | 1018.8 hPa | 0 mm | - | - | - |
| 1787634023 | 17.78° C | 88% | 1018.8 hPa | 0 mm | - | - | - |
| 1787633722 | 16.67° C | 95% | 1018.8 hPa | 0 mm | - | - | - |
| 1787633422 | 16.11° C | 95% | 1018.9 hPa | 0 mm | - | - | - |
| 1787633122 | 14.44° C | 95% | 1019 hPa | 0 mm | - | - | - |
| 1787632821 | 12.78° C | 94% | 1019.1 hPa | 0 mm | - | - | - |
| 1787632521 | 12.22° C | 93% | 1019.1 hPa | 0 mm | - | - | - |
| 1787632221 | 11.67° C | 92% | 1019.1 hPa | 0 mm | - | - | - |
| 1787631921 | 11.67° C | 92% | 1019.1 hPa | 0 mm | - | - | - |
| 1787631620 | 11.67° C | 92% | 1019.1 hPa | 0 mm | - | - | - |
| 1787631320 | 11.67° C | 92% | 1019.2 hPa | 0 mm | - | - | - |
| 1787631020 | 11.11° C | 92% | 1018.9 hPa | 0 mm | - | - | - |
| 1787630719 | 11.11° C | 92% | 1019 hPa | 0 mm | - | - | - |
| 1787630419 | 11.11° C | 92% | 1019 hPa | 0 mm | - | - | - |
| 1787630119 | 11.11° C | 92% | 1019 hPa | 0 mm | - | - | - |
| 1787629819 | 11.11° C | 92% | 1019 hPa | 0 mm | - | - | - |
* Rain latest hour (hover to see other rain measurements)
** Current wind speed in m/s (hover to see current wind gust speed)